weerbeeld Almere Meer informatie weerbeeld Almere


Onweer radar Meer informatie blitzortung!


Regen radar Meer informatie rain snow radar


Apparatuur in gebruik:

Davis VP2

Meteohub

ALIX 1D

Web-Oke


Het weer levert geen direct gevaar op.    Er zijn geen waarschuwingen afgegeven.

Weather Underground Historische gegevens

Dagelijkse Samenvatting februari 21, 2019 Eenheden:  Metrisch    Engels   Beide
« Vorige Dag
Volgende Dag »
Dagelijkse Wekelijkse Maandelijkse Jaarlijkse Aangepaste
  Huidig: Hoog: Laag: Gemiddeld:
Temperatuur: -13.9 °C -17.8 °C -14.1 °C -14 °C
Dauwpunt: -15.6 °C -17.8 °C -16.1 °C -15.8 °C
Vochtigheid: 81 % Humidity % 74 % 78 %
Wind snelheid: 20.8 km/h 0 km/h 7.7 km/h 16.6 km/h
Windvlaag: 33.6 km/h 0 km/h - -
Wind:SW - - SW
Luchtdruk: 34659.1 hPa 0 hPa 34635.4 hPa -
Neerslag: 0 mm      
Historical Graphs
 
 
Tabel voor februari 21, 2019
Tijd Temperatuur Dauwpunt Luchtdruk Wind Wind snelheid Windvlaag Vochtigheid Regenval per uur
-17.8 °C -17.8 °C 0 hPa Calm     Humidity % 0 mm
00:02 -13.7 °C -16.1 °C 34635.4 hPa SW 20.8 km/h 28.5 km/h 74 % 0 mm
00:07 -13.7 °C -16 °C 34635.4 hPa SW 12.9 km/h 28.5 km/h 75 % 0 mm
00:12 -13.7 °C -16 °C 34635.4 hPa WSW 15.6 km/h 28.5 km/h 75 % 0 mm
00:17 -13.7 °C -16 °C 34635.4 hPa WSW 12.9 km/h 28.5 km/h 75 % 0 mm
00:22 -13.8 °C -15.9 °C 34635.4 hPa SW 25.9 km/h 28.5 km/h 76 % 0 mm
00:27 -13.8 °C -15.9 °C 34635.4 hPa SSW 18.2 km/h 28.5 km/h 76 % 0 mm
00:32 -13.8 °C -15.9 °C 34635.4 hPa SSW 20.8 km/h 28.5 km/h 77 % 0 mm
00:37 -13.8 °C -15.9 °C 34635.4 hPa SW 18.2 km/h 28.5 km/h 77 % 0 mm
00:42 -13.8 °C -15.9 °C 34635.4 hPa SSW 15.6 km/h 28.5 km/h 77 % 0 mm
00:47 -13.8 °C -15.9 °C 34635.4 hPa SSW 18.2 km/h 28.5 km/h 77 % 0 mm
00:52 -13.8 °C -15.8 °C 34645.6 hPa SW 10.3 km/h 33.6 km/h 78 % 0 mm
00:57 -13.8 °C -15.8 °C 34635.4 hPa SSW 20.8 km/h 33.6 km/h 78 % 0 mm
01:02 -13.8 °C -15.8 °C 34645.6 hPa SW 12.9 km/h 33.6 km/h 78 % 0 mm
01:07 -13.8 °C -15.8 °C 34645.6 hPa SW 20.8 km/h 31.1 km/h 78 % 0 mm
01:12 -13.8 °C -15.8 °C 34645.6 hPa SW 12.9 km/h 28.5 km/h 78 % 0 mm
01:17 -13.8 °C -15.8 °C 34645.6 hPa West 18.2 km/h 28.5 km/h 78 % 0 mm
01:22 -13.8 °C -15.8 °C 34645.6 hPa SSW 10.3 km/h 33.6 km/h 78 % 0 mm
01:27 -13.8 °C -15.7 °C 34645.6 hPa West 10.3 km/h 33.6 km/h 79 % 0 mm
01:32 -13.8 °C -15.7 °C 34645.6 hPa WSW 18.2 km/h 33.6 km/h 79 % 0 mm
01:37 -13.8 °C -15.7 °C 34645.6 hPa SW 23.3 km/h 28.5 km/h 79 % 0 mm
01:42 -13.8 °C -15.7 °C 34645.6 hPa SSW 18.2 km/h 28.5 km/h 79 % 0 mm
01:47 -13.8 °C -15.7 °C 34659.1 hPa SW 31.1 km/h 28.5 km/h 79 % 0 mm
01:52 -13.8 °C -15.7 °C 34645.6 hPa SW 7.7 km/h 31.1 km/h 79 % 0 mm
01:57 -13.8 °C -15.7 °C 34659.1 hPa WSW 10.3 km/h 31.1 km/h 79 % 0 mm
02:02 -13.8 °C -15.7 °C 34659.1 hPa WSW 10.3 km/h 31.1 km/h 79 % 0 mm
02:07 -13.9 °C -15.7 °C 34659.1 hPa SW 7.7 km/h 25.9 km/h 80 % 0 mm
02:12 -13.9 °C -15.7 °C 34659.1 hPa WSW 12.9 km/h 28.5 km/h 80 % 0 mm
02:17 -13.9 °C -15.7 °C 34659.1 hPa SW 18.2 km/h 31.1 km/h 80 % 0 mm
02:22 -13.9 °C -15.7 °C 34659.1 hPa WSW 15.6 km/h 31.1 km/h 80 % 0 mm
02:27 -13.9 °C -15.7 °C 34669.3 hPa SW 20.8 km/h 31.1 km/h 80 % 0 mm
02:32 -13.9 °C -15.7 °C 34669.3 hPa SW 18.2 km/h 31.1 km/h 80 % 0 mm
02:37 -14 °C -15.8 °C 34669.3 hPa SW 18.2 km/h 31.1 km/h 80 % 0 mm
02:42 -14 °C -15.8 °C 34669.3 hPa SW 15.6 km/h 31.1 km/h 80 % 0 mm
02:47 -14 °C -15.8 °C 34669.3 hPa SW 18.2 km/h 31.1 km/h 80 % 0 mm
02:52 -14 °C -15.7 °C 34669.3 hPa SW 18.2 km/h 31.1 km/h 81 % 0 mm
02:57 -14.1 °C -15.7 °C 34669.3 hPa SW 18.2 km/h 31.1 km/h 81 % 0 mm
03:02 -14.1 °C -15.7 °C 34669.3 hPa SW 10.3 km/h 31.1 km/h 81 % 0 mm
03:07 -14.1 °C -15.8 °C 34659.1 hPa WSW 10.3 km/h 31.1 km/h 81 % 0 mm
03:12 -14.1 °C -15.8 °C 34659.1 hPa SW 20.8 km/h 31.1 km/h 81 % 0 mm
03:17 -14.1 °C -15.7 °C 34659.1 hPa SSW 18.2 km/h 31.1 km/h 81 % 0 mm
03:22 -14.1 °C -15.7 °C 34659.1 hPa SW 15.6 km/h 31.1 km/h 81 % 0 mm
03:27 -14.1 °C -15.7 °C 34659.1 hPa SW 18.2 km/h 31.1 km/h 81 % 0 mm
03:32 -14.1 °C -15.8 °C 34659.1 hPa WSW 12.9 km/h 31.1 km/h 81 % 0 mm
03:37 -14.1 °C -15.8 °C 34659.1 hPa SW 18.2 km/h 33.6 km/h 81 % 0 mm
03:42 -14.1 °C -15.7 °C 34659.1 hPa SW 18.2 km/h 36.2 km/h 81 % 0 mm
03:47 -14.1 °C -15.8 °C 34659.1 hPa SW 10.3 km/h 36.2 km/h 81 % 0 mm
03:52 -14.1 °C -15.8 °C 34645.6 hPa WSW 20.8 km/h 36.2 km/h 81 % 0 mm
03:57 -14.1 °C -15.7 °C 34659.1 hPa SW 18.2 km/h 31.1 km/h 81 % 0 mm
04:02 -14.1 °C -15.8 °C 34659.1 hPa SW 18.2 km/h 31.1 km/h 81 % 0 mm
04:07 -14.1 °C -15.7 °C 34659.1 hPa SSW 15.6 km/h 31.1 km/h 81 % 0 mm
04:12 -14.1 °C -15.7 °C 34659.1 hPa SW 25.9 km/h 31.1 km/h 81 % 0 mm
04:17 -14.1 °C -15.7 °C 34659.1 hPa South 18.2 km/h 31.1 km/h 81 % 0 mm
04:22 -14.1 °C -15.7 °C 34659.1 hPa SSW 10.3 km/h 31.1 km/h 81 % 0 mm
04:27 -14.1 °C -15.7 °C 34645.6 hPa SW 31.1 km/h 31.1 km/h 81 % 0 mm
04:32 -14.1 °C -15.7 °C 34659.1 hPa WSW 18.2 km/h 31.1 km/h 81 % 0 mm
04:37 -14 °C -15.7 °C 34659.1 hPa SW 20.8 km/h 31.1 km/h 81 % 0 mm
04:42 -14 °C -15.7 °C 34659.1 hPa SW 12.9 km/h 31.1 km/h 81 % 0 mm
04:47 -13.9 °C -15.6 °C 34659.1 hPa SW 20.8 km/h 33.6 km/h 81 % 0 mm
Weerstation Almere Buiten
Gegevens verzameld door Weather Underground - 4 mb

Script ontwikkeld door  Jim McMurry - jmcmurry@mwt.net Aangepast voor de template door  Wim van der Kuil - Leuven-Template.eu

U vindt ons ook hier:

Het Weer Aktueel

UK Metoffice

European Weather Network

Weather Underground

AWEKAS